GEFSMA_con_prob3kmehi_192.txt.gz
EHI
0 0 0 0 0 0 0 0 0 0 0 0 0 0 0 0 0 0 1 4 7 10 10 7 5 4 4 3 2 1 0 0 0 0 0 0 0 0 0 0 0 0 0
0 0 0 0 0 0 0 0 0 0 0 0 0 0 0 0 0 0 0 2 6 10 11 9 7 6 6 5 4 2 1 1 0 0 0 0 0 0 0 0 0 0 0
1 0 0 0 0 0 0 0 0 0 0 0 0 0 0 0 0 0 0 1 3 8 11 12 11 10 8 7 5 3 2 2 1 0 0 0 0 0 0 0 0 0 0
2 1 0 0 0 0 0 0 0 1 0 0 0 0 0 0 0 0 0 0 1 3 6 10 14 13 9 7 5 4 3 3 2 1 0 0 0 0 0 0 0 0 0
4 3 1 0 0 0 0 0 0 0 0 0 0 0 0 0 0 0 0 0 0 0 2 5 10 11 9 6 6 5 4 3 2 1 0 0 0 0 0 0 0 0 0
6 5 3 1 0 0 0 0 0 0 0 0 0 0 0 0 0 0 0 0 0 0 0 1 3 5 6 6 7 6 5 4 3 1 0 0 0 0 0 0 0 0 0
10 8 5 3 2 1 0 0 0 0 0 0 0 0 0 0 0 0 0 0 0 0 0 0 0 1 2 4 6 8 8 6 4 2 1 1 0 0 0 0 0 0 0
11 10 8 7 5 3 2 0 0 0 0 0 0 0 0 0 0 0 0 0 0 0 0 0 0 0 1 1 3 6 8 7 6 5 3 2 1 0 0 0 0 0 0
11 12 12 10 9 6 4 2 2 1 1 0 0 0 0 0 0 0 0 0 0 0 0 0 0 1 1 0 0 3 6 7 7 7 6 4 1 0 0 0 0 0 0
14 14 14 13 11 9 7 5 5 4 3 1 1 1 0 0 0 0 0 0 0 0 0 0 1 2 2 2 1 1 3 6 7 8 8 6 4 2 2 1 0 0 0
16 16 15 13 12 11 9 8 7 6 5 3 2 1 0 0 0 0 0 0 0 0 0 0 2 3 3 3 3 3 4 4 4 6 7 8 7 6 5 4 2 1 1
15 15 14 13 13 12 11 9 7 6 5 4 3 1 0 0 0 0 0 0 0 0 0 0 1 2 3 3 3 4 4 3 2 2 4 5 7 7 7 6 6 5 4
12 13 14 13 13 13 12 9 7 6 5 5 3 1 0 0 0 0 0 0 0 0 0 0 0 1 1 2 1 2 3 2 1 0 1 2 3 5 5 6 6 5 4
9 10 12 14 14 13 11 8 6 5 5 4 2 1 0 0 0 0 0 0 0 0 0 0 0 0 0 0 0 0 1 1 0 0 0 0 0 1 2 2 2 2 2
6 7 10 12 12 10 7 6 5 4 3 2 1 0 0 0 0 1 0 0 0 0 0 0 0 0 0 0 0 0 0 0 0 0 0 0 0 0 0 0 0 0 1
5 6 7 8 8 6 4 3 3 3 3 2 1 1 0 0 0 0 0 0 0 0 0 0 0 0 0 0 0 0 0 0 0 0 0 0 0 0 0 0 0 0 0
5 5 5 5 4 3 1 1 1 2 2 2 2 2 1 0 0 0 0 0 0 0 0 0 0 0 0 0 0 0 0 0 0 0 0 0 0 0 0 0 0 0 0
6 5 4 2 2 1 1 1 1 1 1 1 1 1 1 0 0 0 0 0 0 0 0 0 0 0 0 0 0 0 0 0 0 0 0 0 0 0 0 0 0 0 0
6 5 4 2 1 0 1 1 0 1 1 0 0 0 0 0 0 0 0 0 0 0 0 0 0 0 0 0 0 0 0 0 0 0 0 0 0 0 0 0 0 0 0
5 4 4 3 1 1 1 1 1 2 2 1 0 0 0 0 0 0 0 0 0 0 0 0 0 0 0 0 0 0 0 0 0 0 0 0 0 0 0 0 0 0 0
4 3 3 3 2 1 1 1 1 1 1 1 0 0 0 0 0 0 0 0 0 0 0 0 0 0 0 0 0 0 0 0 0 0 0 0 0 0 0 0 0 0 0
3 3 2 2 1 0 0 1 1 0 0 0 0 0 0 0 0 0 0 0 0 0 0 0 0 0 0 0 0 0 0 0 0 0 0 0 0 0 0 0 0 0 0
3 2 1 0 0 0 0 0 0 0 0 0 0 0 0 0 0 0 0 0 0 0 0 0 0 0 0 0 0 0 0 0 0 0 0 0 0 0 0 0 0 0 0
2 1 0 0 0 0 0 0 0 0 0 0 0 0 0 0 0 0 0 0 0 0 0 0 0 0 0 0 0 0 0 0 0 0 0 0 0 0 0 0 0 0 0
1 0 0 0 0 0 0 0 0 0 0 0 0 0 0 0 0 0 0 0 0 0 0 0 0 0 0 0 0 0 0 0 0 0 0 0 0 0 0 0 0 0 0
0 0 0 0 0 0 0 0 0 0 0 0 0 0 0 0 0 0 0 0 0 0 0 0 0 0 0 0 0 0 0 0 0 0 0 0 0 0 0 0 0 0 0

GEFSMA_con_prob3kmehi_198.txt.gz
EHI
0 0 0 0 0 0 0 0 0 0 0 0 0 0 0 0 0 0 0 1 2 3 6 7 6 3 2 1 0 0 0 0 0 0 0 0 0 0 0 0 0 0 0
0 0 0 0 0 0 0 0 0 0 0 0 0 0 0 0 0 0 0 0 1 3 4 5 6 6 5 3 2 1 0 0 0 0 0 0 0 0 0 0 0 0 0
0 0 0 0 0 0 0 0 0 0 0 0 0 0 0 0 0 0 0 0 1 2 3 4 6 7 7 6 4 2 0 0 0 0 0 0 0 0 0 0 0 0 0
0 0 0 0 0 0 0 0 0 0 0 0 0 0 0 0 0 0 0 0 0 1 3 4 5 6 7 6 4 2 0 0 0 0 0 0 0 0 0 0 0 0 0
0 0 0 0 0 0 0 0 0 0 0 0 0 0 0 0 0 0 0 0 0 0 1 2 3 4 4 5 3 1 0 0 0 0 0 0 0 0 0 0 0 0 0
0 0 0 0 0 0 1 1 1 0 0 0 0 0 0 0 0 0 0 0 0 0 0 0 1 1 2 3 3 2 1 1 1 1 1 0 0 0 0 0 0 0 0
0 0 0 0 0 0 1 1 1 0 0 0 0 0 0 0 0 0 0 0 0 0 0 0 0 0 1 1 2 2 3 3 3 3 3 2 1 1 1 0 0 0 0
0 0 0 1 1 0 1 1 0 0 0 0 0 0 0 0 0 0 0 0 0 0 0 0 0 0 0 0 0 1 2 2 3 4 6 5 3 2 2 1 0 0 0
0 0 0 1 2 1 1 0 0 0 0 0 0 0 0 0 0 0 0 0 0 0 0 0 0 0 0 0 0 0 0 1 2 4 7 8 5 3 3 2 1 0 0
1 1 0 1 2 3 2 1 1 1 1 1 1 0 0 0 0 0 0 0 0 0 0 0 0 0 0 0 0 0 0 1 1 3 5 6 6 4 4 3 2 1 0
2 1 0 1 3 5 4 3 2 2 2 2 2 1 1 0 0 0 0 0 0 0 0 0 0 0 0 0 0 0 0 0 0 1 2 3 3 4 3 3 2 1 1
2 1 1 2 4 5 4 3 2 2 2 3 3 2 2 1 0 0 0 0 0 0 0 0 0 0 0 0 0 0 0 0 0 0 0 0 0 1 2 1 1 1 1
3 2 2 4 5 5 4 3 2 1 1 2 2 2 1 1 0 1 0 0 0 0 0 0 0 0 0 0 0 0 0 0 0 0 0 0 0 0 0 0 0 1 2
5 3 3 4 5 4 3 3 2 1 1 1 1 0 0 0 0 0 0 0 0 0 0 0 0 0 0 0 0 0 0 0 0 0 0 0 0 0 0 0 0 1 2
5 4 4 4 3 3 2 2 2 1 0 0 0 0 0 0 0 0 0 0 0 0 0 0 0 0 0 0 0 0 0 0 0 0 0 0 0 0 0 0 0 1 1
3 3 3 3 2 1 1 1 1 0 0 0 0 0 0 0 0 0 0 0 0 0 0 0 0 0 0 0 0 0 0 0 0 0 0 0 0 0 0 0 0 0 0
2 2 3 3 3 1 0 0 0 0 0 0 0 0 0 0 0 0 0 0 0 0 0 0 0 0 0 0 0 0 0 0 0 0 0 0 0 0 0 0 0 0 0
2 2 3 4 3 2 0 0 0 0 0 0 1 1 0 0 0 0 0 0 0 0 0 0 0 0 0 0 0 0 0 0 0 0 0 0 0 0 0 0 0 0 0
2 2 3 5 3 1 0 0 0 0 1 1 1 1 0 0 0 0 0 0 0 0 0 0 0 0 0 0 0 0 0 0 0 0 0 0 0 0 0 0 0 0 0
3 3 3 3 2 1 1 1 1 1 1 1 1 1 0 0 0 0 0 0 0 0 0 0 0 0 0 0 0 0 0 0 0 0 0 0 0 0 0 0 0 0 0
3 2 2 2 1 2 2 2 2 2 1 1 0 0 0 0 0 0 0 0 0 0 0 0 0 0 0 0 0 0 0 0 0 0 0 0 0 0 0 0 0 0 0
2 1 1 1 1 1 2 2 2 1 0 0 0 0 0 0 0 0 0 0 0 0 0 0 0 0 0 0 0 0 0 0 0 0 0 0 0 0 0 0 0 0 0
2 1 0 1 1 0 1 1 1 0 0 0 0 0 0 0 0 0 0 0 0 0 0 0 0 0 0 0 0 0 0 0 0 0 0 0 0 0 0 0 0 0 0
1 1 0 0 0 0 0 0 0 0 0 0 0 0 0 0 0 0 0 0 0 0 0 0 0 0 0 0 0 0 0 0 0 0 0 0 0 0 0 0 0 0 0
1 1 1 0 0 0 0 0 0 0 0 0 0 0 0 0 0 0 0 0 0 0 0 0 0 0 0 0 0 0 0 0 0 0 0 0 0 0 0 0 0 0 0
3 2 1 0 0 0 0 0 0 0 0 0 0 0 0 0 0 0 0 0 0 0 0 0 0 0 0 0 0 0 0 0 0 0 0 0 0 0 0 0 0 0 0

GEFSMA_con_prob3kmehi_204.txt.gz
EHI
0 1 0 0 0 0 0 0 0 0 0 0 0 0 0 0 0 0 0 0 0 1 1 1 1 1 1 2 3 3 3 3 1 0 0 0 0 0 0 0 0 0 0
1 1 1 0 0 0 0 0 0 0 0 0 0 0 0 0 0 0 0 0 1 2 2 2 2 1 1 1 3 3 3 3 2 1 0 0 0 0 0 0 0 0 0
1 1 1 0 0 0 0 0 0 1 1 0 0 0 0 0 0 0 0 1 2 2 3 3 3 2 0 1 2 3 3 3 3 2 1 0 0 0 0 0 0 0 0
3 2 1 0 0 0 0 0 0 1 1 0 0 0 1 1 0 0 0 1 1 1 2 4 4 2 1 0 1 1 2 2 3 3 2 1 0 0 0 0 0 0 0
3 3 2 1 0 0 0 0 1 1 1 1 0 1 2 2 1 0 0 0 0 1 2 3 4 3 1 1 1 1 1 1 2 2 2 1 0 0 0 0 0 0 0
3 3 3 2 2 1 1 1 1 1 2 1 0 1 1 1 1 0 0 0 0 0 1 1 2 2 2 1 1 2 1 1 1 1 1 0 0 0 0 0 0 0 0
2 2 3 3 4 3 2 1 1 1 1 1 0 0 1 1 1 0 1 1 0 0 0 0 1 2 3 2 1 2 2 2 2 1 1 0 0 0 0 0 0 0 0
2 3 3 4 5 5 4 3 3 3 2 2 2 1 1 1 0 0 1 2 1 1 1 1 1 2 3 3 1 1 2 2 2 2 1 1 1 1 0 0 0 0 0
5 5 4 4 5 5 5 6 8 8 6 6 6 6 4 2 1 0 2 3 2 2 2 2 2 3 4 4 3 1 1 1 2 2 1 1 0 0 0 0 0 0 0
8 7 6 7 8 7 8 9 11 13 11 9 9 10 9 7 4 2 2 2 2 1 1 1 1 3 4 4 4 2 1 0 1 1 1 0 1 1 1 0 0 0 0
9 8 8 9 10 10 10 11 12 14 14 11 12 14 14 12 10 7 3 2 1 0 0 0 1 2 3 3 4 3 1 0 0 0 0 0 1 2 2 1 1 0 0
9 8 8 8 10 11 11 11 11 13 14 15 16 17 16 15 13 9 4 1 1 1 0 0 1 2 2 3 3 2 1 0 0 0 0 0 1 2 2 2 1 1 0
8 8 8 9 10 10 10 10 11 12 13 15 17 17 17 16 13 9 4 1 1 1 0 1 2 2 2 3 3 1 0 0 0 0 0 0 0 1 1 1 1 1 1
6 7 9 10 10 9 8 9 10 11 12 13 13 12 13 13 11 8 4 2 1 0 0 1 2 2 2 3 2 0 0 0 0 0 0 0 0 0 0 0 0 1 1
7 7 9 10 9 7 7 8 9 9 10 11 10 8 8 9 9 8 6 4 2 1 1 1 2 3 3 1 0 0 0 0 0 0 0 0 0 0 0 0 0 0 1
9 9 9 9 8 7 7 8 8 7 8 9 8 5 4 6 8 8 7 6 5 3 2 3 4 5 4 2 1 0 0 1 1 0 0 0 0 0 0 0 0 0 0
9 9 9 8 7 7 8 9 8 7 7 8 6 3 2 4 6 6 6 8 8 5 3 3 4 5 6 4 2 0 1 2 2 0 0 0 0 0 0 0 0 0 0
8 9 9 8 7 8 10 11 9 8 7 6 4 3 3 3 4 3 4 5 6 6 4 4 4 6 5 4 2 1 1 1 1 0 0 0 0 0 0 0 0 0 0
9 10 10 8 8 8 10 12 11 9 8 6 4 3 3 4 4 3 2 2 3 4 5 4 3 5 4 3 3 2 2 2 1 0 0 0 0 0 0 0 0 0 0
11 11 10 9 9 9 9 10 11 11 9 6 4 3 3 4 4 2 1 1 1 3 4 4 2 2 3 3 4 4 4 4 2 1 0 0 0 0 0 0 0 0 0
10 11 11 10 9 9 8 9 11 11 10 7 5 3 2 2 1 1 0 0 1 2 3 3 3 2 2 3 5 4 4 4 3 1 1 1 0 0 0 0 0 0 0
11 12 12 11 9 7 6 6 9 10 9 7 5 4 2 0 0 0 0 0 0 1 2 3 4 3 2 3 4 3 2 3 2 2 1 1 0 0 0 0 0 0 0
13 14 14 12 9 7 3 2 5 7 6 5 3 3 2 0 0 0 0 0 0 0 1 2 3 2 1 1 1 1 1 1 2 2 1 1 0 0 0 0 0 0 0
13 14 13 11 8 5 2 0 1 3 2 1 1 1 1 0 0 0 0 0 0 0 0 1 1 0 0 0 0 0 0 0 1 1 0 0 0 0 0 0 0 0 0
11 11 10 8 5 3 1 0 0 1 1 0 0 0 0 0 0 0 0 0 0 0 0 0 0 0 0 0 0 0 0 0 0 0 0 0 0 0 0 0 0 0 0
9 9 8 5 4 2 1 0 1 2 2 1 0 0 0 0 0 0 0 0 0 0 0 0 0 0 0 0 0 0 0 0 0 0 0 0 0 0 0 0 0 0 0

GEFSMA_con_prob3kmehi_210.txt.gz
EHI
0 0 0 0 0 1 3 4 2 0 0 0 0 0 0 1 2 4 8 14 14 11 8 8 6 4 3 3 3 3 3 3 2 1 0 0 0 0 0 0 0 0 0
1 1 1 1 0 1 3 3 2 1 0 0 1 1 2 3 5 6 7 11 14 13 11 9 8 5 4 3 3 3 3 3 3 2 1 1 0 0 0 0 0 0 0
3 3 2 1 0 1 3 4 3 2 0 1 2 4 5 7 9 9 8 10 12 14 14 13 11 9 6 4 3 3 3 3 3 3 3 2 1 1 0 0 0 0 0
4 3 2 1 0 1 3 4 4 1 0 1 2 4 6 10 12 11 11 13 15 17 19 19 17 14 10 6 5 5 4 3 3 3 3 3 3 2 1 0 0 0 0
5 5 4 3 2 1 2 4 4 2 1 1 1 3 5 10 13 12 12 14 18 23 24 24 24 20 14 11 11 11 8 5 3 1 2 2 3 3 2 1 0 0 0
10 9 9 10 8 5 4 5 5 5 4 3 2 2 4 7 11 13 12 11 14 20 24 27 28 22 16 15 17 17 14 9 5 2 1 1 2 2 2 1 0 0 0
14 13 13 15 15 11 8 8 8 7 7 7 5 3 3 5 8 13 14 11 9 12 19 26 30 28 21 16 16 18 16 13 10 7 4 2 1 1 1 0 0 0 0
15 15 16 16 16 15 13 13 12 11 9 9 7 6 4 4 5 7 11 12 10 11 16 21 28 32 30 22 14 12 13 14 14 13 10 5 2 0 0 0 0 0 0
19 18 18 16 14 14 15 17 16 14 11 9 8 8 7 5 2 3 6 9 13 16 16 15 19 28 31 27 17 9 8 10 12 14 13 9 5 1 0 0 0 0 0
24 22 20 17 16 16 15 17 19 16 12 9 8 10 9 6 3 3 3 6 12 18 18 14 13 20 25 25 21 13 6 5 7 9 10 10 7 3 1 1 0 0 0
28 25 24 23 23 21 19 20 23 21 17 13 11 10 9 7 5 4 4 5 8 13 17 16 13 15 19 21 20 14 7 4 3 3 5 6 6 4 3 2 1 1 1
29 28 29 30 28 25 23 24 25 25 23 19 14 11 9 7 7 5 4 4 4 7 12 15 15 13 16 18 16 13 9 5 1 0 1 2 2 2 2 2 2 2 2
25 26 28 29 28 25 23 22 23 24 24 20 16 13 10 8 7 6 5 3 2 3 6 12 15 15 15 16 14 11 9 5 1 0 0 0 0 1 1 1 1 1 1
17 19 22 24 26 24 22 21 20 20 19 16 15 14 12 9 7 6 5 2 1 1 3 8 13 15 16 16 14 10 8 4 0 0 0 0 0 0 0 0 0 0 0
12 14 17 20 22 22 21 20 20 18 16 14 14 14 14 10 7 4 3 2 1 0 1 4 8 12 14 13 10 10 9 4 1 0 0 0 0 0 0 0 0 0 0
12 12 12 14 16 17 17 18 18 17 16 15 14 15 16 13 7 3 3 3 3 1 1 2 5 9 11 8 6 8 8 4 1 0 0 0 0 0 0 0 0 0 0
12 11 10 10 12 13 14 14 14 15 15 14 13 13 15 13 9 6 5 5 5 3 2 2 4 6 7 6 5 6 6 4 2 1 0 0 0 0 0 0 0 0 0
14 13 12 12 13 13 12 12 11 12 13 12 11 10 12 12 10 8 6 6 6 4 3 2 2 3 4 5 4 5 4 3 2 1 0 0 0 0 0 0 0 0 0
14 14 14 14 15 14 13 12 11 11 11 11 10 9 9 9 9 8 7 5 5 3 2 1 1 1 2 2 3 3 3 2 2 1 0 0 0 0 0 0 0 0 0
11 12 12 12 12 13 13 13 13 12 9 9 10 9 7 5 6 7 5 3 2 1 1 0 0 1 2 1 1 1 1 1 1 0 0 0 0 0 0 0 0 0 0
10 10 10 9 10 10 11 12 12 10 8 8 9 9 5 2 2 2 2 1 0 0 0 0 0 1 1 1 0 0 0 0 0 0 0 0 0 0 0 0 0 0 0
12 11 9 8 7 7 7 7 8 8 7 7 8 7 3 1 0 0 0 0 0 0 0 0 0 0 0 0 0 0 0 0 0 0 0 0 0 0 0 0 0 0 0
14 12 9 6 5 5 4 3 3 5 6 6 7 6 4 1 0 0 0 0 0 0 0 1 0 0 0 0 0 0 0 0 0 0 0 0 0 0 0 0 0 0 0
12 9 6 4 3 3 2 1 1 4 6 6 5 5 4 2 1 1 0 0 0 0 0 0 0 0 0 0 0 0 0 0 0 0 0 0 0 0 0 0 0 0 0
8 6 3 3 3 3 2 1 1 4 5 5 5 5 4 1 0 0 0 0 0 0 0 0 0 0 0 0 0 0 0 0 0 0 0 0 0 0 0 0 0 0 0
8 5 3 3 3 3 2 1 1 3 4 4 4 5 3 1 0 0 0 0 0 0 0 0 0 0 0 0 0 0 0 0 0 0 0 0 0 0 0 0 0 0 0

GEFSMA_con_prob3kmehi_216.txt.gz
EHI
0 0 0 0 0 0 0 0 0 0 0 0 0 0 0 0 0 0 1 5 11 14 14 12 8 5 4 3 3 3 3 3 3 3 2 1 0 0 0 0 0 0 0
0 0 0 0 0 0 0 0 0 0 0 0 0 0 0 0 0 0 0 3 7 11 12 11 8 6 5 4 3 3 3 3 3 3 3 2 1 0 0 0 0 0 0
0 0 0 0 0 0 0 0 0 0 0 0 0 0 0 0 0 0 0 1 2 5 9 11 12 10 8 6 4 3 3 3 3 3 3 2 1 0 0 0 0 0 0
0 0 0 0 0 0 0 0 0 0 0 0 0 0 0 0 0 0 0 0 0 1 5 12 17 17 13 10 7 5 3 3 3 3 3 2 1 0 0 0 0 0 0
0 0 0 0 0 0 0 0 0 0 0 0 0 0 0 0 0 0 0 0 0 0 2 8 15 18 16 14 12 8 5 3 3 3 3 2 1 0 0 0 0 0 0
1 0 0 0 0 0 0 0 0 0 0 0 0 0 0 0 0 0 0 0 0 0 0 2 6 9 12 15 15 13 9 6 4 3 3 2 0 0 0 0 0 0 0
3 2 2 1 0 0 0 0 0 0 0 0 0 0 0 0 0 0 0 0 0 0 1 1 0 2 5 8 11 13 13 11 8 5 4 3 1 1 0 0 0 0 0
5 5 5 3 1 1 1 1 1 1 1 0 0 0 0 0 0 0 0 0 0 0 1 1 1 1 1 2 4 9 13 13 10 6 4 3 2 1 0 0 1 0 0
6 7 7 5 4 4 4 3 3 2 2 1 0 0 0 0 0 0 0 0 0 0 1 1 2 2 1 1 1 3 6 8 8 7 4 2 1 1 0 0 0 0 0
5 7 8 6 6 6 6 5 4 4 4 3 2 2 1 0 0 0 0 0 0 0 0 0 1 2 2 2 3 2 2 2 4 6 5 3 1 0 1 1 0 0 0
4 6 7 6 6 6 6 6 6 6 6 5 3 3 2 1 1 1 0 0 0 0 0 0 0 1 1 3 4 4 2 1 1 3 4 3 1 1 2 2 1 1 0
3 4 5 5 5 6 6 6 6 6 6 6 5 4 3 2 1 1 0 0 0 0 0 0 0 0 0 1 3 5 4 2 0 1 1 1 1 1 2 2 2 2 1
3 3 4 5 6 6 6 6 6 6 6 6 6 5 4 4 3 2 1 0 0 0 0 0 0 0 0 0 2 4 4 2 0 0 0 0 0 0 1 1 2 2 2
4 4 5 7 8 7 7 6 6 6 6 6 6 6 6 5 4 3 2 0 0 0 0 0 0 0 0 0 0 1 1 1 0 0 0 0 0 0 0 0 1 1 1
5 5 6 8 9 8 7 6 6 6 6 6 6 6 5 4 3 3 1 0 0 0 0 0 0 0 0 0 0 0 0 0 0 0 0 0 0 0 0 0 0 0 0
6 6 7 7 7 7 6 6 6 6 6 6 5 4 4 3 3 2 1 0 0 0 0 0 0 0 0 0 0 0 0 0 0 0 0 0 0 0 0 0 0 0 0
6 7 6 5 5 4 4 5 6 6 6 6 4 3 3 3 2 1 1 1 0 0 0 0 0 0 0 0 0 0 0 0 0 0 0 0 0 0 0 0 0 0 0
6 6 5 4 4 4 4 5 5 6 6 5 4 4 3 3 1 0 0 0 0 0 0 0 0 0 0 0 0 0 0 0 0 0 0 0 0 0 0 0 0 0 0
5 5 4 5 6 6 6 6 5 5 5 5 5 4 4 2 1 0 0 0 0 0 0 0 0 0 0 0 0 0 0 0 0 0 0 0 0 0 0 0 0 0 0
5 5 5 7 8 8 7 6 4 4 4 4 4 3 3 2 1 0 0 0 0 0 0 0 0 0 0 0 0 0 0 0 0 0 0 0 0 0 0 0 0 0 0
6 6 6 7 7 7 6 4 3 3 3 3 2 1 2 2 1 0 0 0 0 0 0 0 0 0 0 0 0 0 0 0 0 0 0 0 0 0 0 0 0 0 0
6 6 6 6 6 5 4 3 3 2 2 2 1 1 1 1 0 0 0 0 0 0 0 0 0 0 0 0 0 0 0 0 0 0 0 0 0 0 0 0 0 0 0
4 4 4 4 4 4 3 3 1 1 1 1 1 1 0 0 0 0 0 0 0 0 0 0 0 0 0 0 0 0 0 0 0 0 0 0 0 0 0 0 0 0 0
3 3 3 3 3 3 3 2 1 1 1 0 0 1 1 1 0 0 0 0 0 0 0 0 0 0 0 0 0 0 0 0 0 0 0 0 0 0 0 0 0 0 0
3 3 3 3 3 3 3 2 1 2 2 1 0 0 1 1 0 0 0 0 0 0 0 0 0 0 0 0 0 0 0 0 0 0 0 0 0 0 0 0 0 0 0
3 3 3 3 3 3 3 2 2 2 3 2 1 0 1 1 0 0 0 0 0 0 0 0 0 0 0 0 0 0 0 0 0 0 0 0 0 0 0 0 0 0 0